Radiation Dose measured at exhaust stack monitor of Miscellaneous Solid Waste Incinerator Building/Incinerator raregas monitor
Date,Time,Incinerator Gas Monitor(cps),Wind Direction,Wind Velocity(m/s)
2022/03/27,00:00,1.5,south-southeast,13.8
2022/03/27,00:10,1.5,south-southeast,12.4
2022/03/27,00:20,1.4,south-southeast,11.6
2022/03/27,00:30,1.5,south,11.3
2022/03/27,00:40,1.5,south-southeast,11.3
2022/03/27,00:50,1.5,south-southeast,10.3
2022/03/27,01:00,1.6,south-southeast,11.0
2022/03/27,01:10,1.5,south-southeast,11.8
2022/03/27,01:20,1.4,south-southeast,9.4
2022/03/27,01:30,1.5,south-southeast,10.0
2022/03/27,01:40,1.5,south-southeast,8.3
2022/03/27,01:50,1.5,south,7.9
2022/03/27,02:00,1.6,south,7.5
2022/03/27,02:10,1.5,south,7.6
2022/03/27,02:20,1.4,south,6.4
2022/03/27,02:30,1.5,south-southwest,4.8
2022/03/27,02:40,1.5,southwest,4.3
2022/03/27,02:50,1.5,west-southwest,3.2
2022/03/27,03:00,1.6,west-northwest,4.5
2022/03/27,03:10,1.6,west-northwest,5.5
2022/03/27,03:20,1.5,west-northwest,4.4
2022/03/27,03:30,1.6,west,4.5
2022/03/27,03:40,1.5,west-southwest,6.1
2022/03/27,03:50,1.5,west-southwest,5.7
2022/03/27,04:00,1.5,west-southwest,5.2
2022/03/27,04:10,1.5,west,3.2
2022/03/27,04:20,1.4,west-northwest,5.1
2022/03/27,04:30,1.5,west-northwest,5.0
2022/03/27,04:40,1.5,northwest,4.6
2022/03/27,04:50,1.5,north-northwest,4.1
2022/03/27,05:00,1.5,north-northwest,3.9
2022/03/27,05:10,1.5,northwest,5.5
2022/03/27,05:20,1.6,northwest,5.0
2022/03/27,05:30,1.6,northwest,6.0
2022/03/27,05:40,1.5,northwest,7.8
2022/03/27,05:50,1.6,northwest,4.9
2022/03/27,06:00,1.3,west-northwest,8.3
2022/03/27,06:10,1.5,west-northwest,6.6
2022/03/27,06:20,1.4,west-northwest,9.2
2022/03/27,06:30,1.5,west-northwest,7.2
2022/03/27,06:40,1.5,west-northwest,7.3
2022/03/27,06:50,1.5,west-northwest,5.0
2022/03/27,07:00,1.4,northwest,4.3
2022/03/27,07:10,1.6,northwest,5.3
2022/03/27,07:20,1.5,northwest,8.1
2022/03/27,07:30,1.5,north-northwest,5.9
2022/03/27,07:40,1.5,northwest,5.3
2022/03/27,07:50,1.6,west-northwest,10.7
2022/03/27,08:00,1.4,northwest,6.4
2022/03/27,08:10,1.5,west-northwest,4.0
2022/03/27,08:20,1.6,northwest,5.1
2022/03/27,08:30,1.5,northwest,3.3
2022/03/27,08:40,1.5,north-northwest,3.5
2022/03/27,08:50,1.6,north,4.4
2022/03/27,09:00,1.5,north-northwest,3.4
2022/03/27,09:10,1.6,north-northwest,1.5
2022/03/27,09:20,1.6,west-northwest,6.1
2022/03/27,09:30,1.6,west,5.4
2022/03/27,09:40,1.5,north-northwest,3.8
2022/03/27,09:50,1.5,northwest,5.9
2022/03/27,10:00,1.6,northwest,4.1
2022/03/27,10:10,1.4,north-northwest,5.4
2022/03/27,10:20,1.6,north-northwest,6.3
2022/03/27,10:30,1.4,north,7.2
2022/03/27,10:40,1.4,north,7.4
2022/03/27,10:50,1.4,north-northwest,7.5
2022/03/27,11:00,1.6,north-northwest,7.0
2022/03/27,11:10,1.6,north,7.8
2022/03/27,11:20,1.5,north-northwest,8.6
2022/03/27,11:30,1.6,north,8.1
2022/03/27,11:40,1.5,north,7.6
2022/03/27,11:50,1.5,north-northwest,9.0
2022/03/27,12:00,1.5,north,7.5
2022/03/27,12:10,1.5,north-northwest,6.9
2022/03/27,12:20,1.5,north,7.7
2022/03/27,12:30,1.7,north-northwest,8.1
2022/03/27,12:40,1.5,north-northwest,6.9
2022/03/27,12:50,1.5,north-northwest,6.2
2022/03/27,13:00,1.5,north,6.6
2022/03/27,13:10,1.4,north,6.5
2022/03/27,13:20,1.6,north,6.1
2022/03/27,13:30,1.4,north,4.0
2022/03/27,13:40,1.5,north-northwest,5.1
2022/03/27,13:50,1.7,north-northwest,3.9
2022/03/27,14:00,1.5,north-northwest,1.4
2022/03/27,14:10,1.5,north-northeast,6.0
2022/03/27,14:20,1.5,north-northeast,5.8
2022/03/27,14:30,1.5,north-northeast,3.8
2022/03/27,14:40,1.5,north-northeast,4.5
2022/03/27,14:50,1.4,northeast,4.4
2022/03/27,15:00,1.5,northeast,6.4
2022/03/27,15:10,1.4,northeast,7.4
2022/03/27,15:20,1.5,north-northeast,5.9
2022/03/27,15:30,1.5,northeast,7.3
2022/03/27,15:40,1.4,northeast,8.7
2022/03/27,15:50,1.5,northeast,7.2
2022/03/27,16:00,1.5,north-northeast,9.8
2022/03/27,16:10,1.5,north-northeast,10.0
2022/03/27,16:20,1.6,north-northeast,9.0
2022/03/27,16:30,1.5,north-northeast,5.4
2022/03/27,16:40,1.6,north-northeast,4.0
2022/03/27,16:50,1.5,north-northeast,5.0
2022/03/27,17:00,1.4,north-northeast,9.2
2022/03/27,17:10,1.5,north-northeast,9.7
2022/03/27,17:20,1.5,north-northeast,8.4
2022/03/27,17:30,1.5,north,10.5
2022/03/27,17:40,1.5,north-northeast,8.4
2022/03/27,17:50,1.5,north-northeast,8.5
2022/03/27,18:00,1.5,north,6.7
2022/03/27,18:10,1.5,north,5.6
2022/03/27,18:20,1.5,north-northeast,2.0
2022/03/27,18:30,1.5,north-northeast,1.5
2022/03/27,18:40,1.5,north-northeast,3.7
2022/03/27,18:50,1.4,north,5.2
2022/03/27,19:00,1.5,north,5.7
2022/03/27,19:10,1.5,north,5.0
2022/03/27,19:20,1.4,north,5.2
2022/03/27,19:30,1.5,north,6.1
2022/03/27,19:40,1.5,north,5.1
2022/03/27,19:50,1.5,north,4.0
2022/03/27,20:00,1.5,north,4.4
2022/03/27,20:10,1.5,north,4.0
2022/03/27,20:20,1.4,north,3.4
2022/03/27,20:30,1.5,north,2.3
2022/03/27,20:40,1.4,north,2.2
2022/03/27,20:50,1.5,north,2.2
2022/03/27,21:00,1.5,north,2.0
2022/03/27,21:10,1.5,north,1.9
2022/03/27,21:20,1.6,north,1.7
2022/03/27,21:30,1.4,north,2.0
2022/03/27,21:40,1.4,north,1.5
2022/03/27,21:50,1.4,north,1.5
2022/03/27,22:00,1.5,north,1.1
2022/03/27,22:10,1.5,-,CALM
2022/03/27,22:20,1.5,-,CALM
2022/03/27,22:30,1.4,south,0.6
2022/03/27,22:40,1.5,south-southwest,1.2
2022/03/27,22:50,1.4,south,0.8
2022/03/27,23:00,1.6,south,0.8
2022/03/27,23:10,1.5,-,CALM
2022/03/27,23:20,1.5,south,2.6
2022/03/27,23:30,1.5,south,2.3
2022/03/27,23:40,1.5,south,2.6
2022/03/27,23:50,1.4,south,2.6
